Location: Caltech
(34.1382°N, 118.1253°W)
Time: 15:24:03
(UTC-07:00)

SEDSat Delta rocket - Visible Passes

Search period start: 22 October 2014 00:00
Search period end: 01 November 2014 00:00
Orbit: 534 x 1010 km, 31.4° (Epoch: 21 October)

Date Brightness Start Highest point End Pass type
(mag) Time Alt. Az. Time Alt. Az. Time Alt. Az.
22 Oct 5.5 19:44:41 10° S 19:47:27 14° SSE 19:47:27 14° SSE visible
23 Oct 5.6 19:05:55 10° S 19:08:23 13° SSE 19:10:46 10° SE visible
23 Oct 5.7 20:49:12 10° SW 20:51:05 19° SSW 20:51:05 19° SSW visible
24 Oct 5.8 18:27:24 10° SSE 18:29:12 11° SSE 18:30:58 10° SE visible
24 Oct 4.8 20:09:55 10° SW 20:14:25 30° S 20:14:25 30° S visible
25 Oct 4.7 19:30:38 10° SW 19:36:01 30° SSE 19:37:41 26° SE visible
25 Oct 6.0 21:16:27 10° WSW 21:17:55 18° WSW 21:17:55 18° WSW visible
26 Oct 5.1 18:51:24 10° SSW 18:56:47 28° SSE 19:00:55 14° ESE visible
26 Oct 4.7 20:37:01 10° WSW 20:41:09 39° SW 20:41:09 39° SW visible
27 Oct 4.0 19:57:35 10° WSW 20:03:47 52° SSE 20:04:19 51° SSE visible
27 Oct 6.5 21:44:16 10° W 21:44:33 11° W 21:44:33 11° W visible
28 Oct 4.3 19:18:10 10° WSW 19:24:30 50° SSE 19:27:27 28° ESE visible
28 Oct 5.5 21:04:46 10° W 21:07:41 28° WSW 21:07:41 28° WSW visible
29 Oct 4.5 18:38:47 10° SW 18:45:11 47° SSE 18:50:33 13° E visible
29 Oct 4.1 20:25:16 10° W 20:30:47 60° SW 20:30:47 60° SW visible
30 Oct 3.9 19:45:47 10° WSW 19:52:22 68° S 19:53:51 51° ESE visible
30 Oct 6.2 21:32:44 10° W 21:34:04 17° W 21:34:04 17° W visible
31 Oct 4.1 19:06:19 10° WSW 19:13:01 67° S 19:16:55 24° E visible
31 Oct 5.1 20:53:12 10° W 20:57:08 37° WSW 20:57:08 37° WSW visible
